RH
98 100 86 77 58 68 85 91 91 100 81 37 17 13 10 6 3 3 3 2 3 4 8 18 34 38 44 76 95 100 97 81 97 90 96 88 77 60 64 83 85 80 77 79
98 73 59 54 76 79 84 100 100 100 63 52 24 10 7 5 4 4 4 4 6 11 21 30 38 46 82 100 100 100 86 96 98 100 90 95 88 80 75 71 80 82 80 79
76 54 60 69 70 74 81 100 100 98 72 63 35 35 14 8 7 7 10 13 18 30 38 40 55 91 100 100 100 89 97 100 95 86 91 99 92 86 78 65 70 75 81 82
64 68 80 74 96 89 83 100 100 96 77 96 90 93 96 70 54 50 48 44 41 42 67 97 100 100 100 100 100 100 100 99 92 97 97 99 98 93 79 66 66 71 74 76
64 79 100 100 100 98 73 100 96 96 79 94 100 100 100 100 96 82 66 68 80 99 100 100 100 100 100 100 100 100 100 100 100 100 100 94 93 88 80 65 66 68 71 79
67 66 100 100 80 63 80 92 99 100 89 91 100 100 100 100 100 100 100 100 100 100 100 100 100 100 100 100 99 100 100 100 96 90 97 93 96 92 66 65 68 73 82 98
94 75 91 99 81 76 72 72 91 100 100 94 100 100 85 97 100 100 100 100 100 100 100 100 100 99 100 98 99 100 99 91 90 87 91 97 74 70 74 83 90 98 100 100
79 76 72 81 100 100 78 86 71 99 100 100 100 100 100 98 100 100 100 100 100 100 99 99 99 97 98 97 96 90 90 94 93 83 77 83 92 99 100 100 100 100 99 93
62 71 70 89 100 100 86 92 73 91 94 100 100 100 100 100 100 100 100 100 95 96 100 100 98 99 100 98 90 81 78 84 94 99 100 100 100 100 100 100 100 100 100 100
66 66 80 92 99 100 89 99 98 80 92 99 100 100 100 100 100 100 100 100 84 97 97 94 86 88 86 99 100 100 100 100 100 100 100 100 100 100 100 100 100 100 100 94
70 70 75 78 83 82 100 93 100 98 90 98 83 89 97 92 90 94 97 100 100 100 100 100 100 100 100 100 100 100 100 100 100 100 100 100 100 100 100 100 97 91 84 68
74 80 65 60 69 82 92 100 100 98 98 97 95 99 92 98 100 100 100 100 100 100 100 100 100 100 100 100 100 100 100 100 100 100 100 100 100 100 94 90 81 64 51 50
95 68 58 70 74 80 96 97 100 98 92 92 95 96 94 96 100 100 100 100 100 100 100 100 100 100 100 100 100 100 100 100 100 100 100 100 96 86 78 58 48 52 71 83
84 74 85 92 91 96 94 97 94 100 100 100 99 100 100 100 100 100 100 100 100 100 100 100 100 100 100 100 100 100 100 100 100 98 88 79 67 53 47 59 80 81 80 82
86 100 95 97 98 98 93 91 91 99 99 100 100 100 100 98 100 100 99 100 100 99 97 97 99 100 100 100 100 100 100 92 80 72 61 50 53 71 84 84 86 84 79 68
100 99 100 100 100 97 86 96 99 96 93 97 98 94 92 90 88 94 100 100 100 99 100 100 100 100 100 100 98 87 77 68 55 51 68 83 86 87 89 83 78 71 59 49
100 100 100 100 100 98 95 95 99 100 100 100 100 96 92 80 74 77 85 97 100 100 100 100 100 100 98 87 82 69 64 58 76 93 87 86 90 84 78 71 60 52 44 35
98 100 100 100 100 100 96 92 99 94 98 95 89 90 94 99 99 100 100 100 100 100 100 100 96 88 83 77 73 65 63 73 86 86 88 88 80 72 62 57 50 40 31 24
95 97 98 100 99 99 100 100 99 96 99 100 100 100 96 95 100 100 99 100 100 100 94 84 77 75 68 67 62 65 85 91 90 88 81 71 65 60 55 49 40 29 22 20
98 98 95 88 96 100 100 100 100 100 100 100 100 100 100 100 97 93 89 88 86 77 74 70 64 59 60 67 79 94 92 88 83 76 68 62 58 54 48 39 28 20 21 14
92 95 90 84 83 93 94 94 98 98 98 98 96 86 82 87 84 75 83 84 91 100 100 100 98 96 95 94 88 88 86 82 70 63 59 58 55 48 37 26 20 22 16 11
83 86 89 87 85 91 97 95 90 96 100 96 88 92 96 85 83 83 89 88 100 100 100 95 88 89 92 92 88 81 69 64 62 59 57 54 46 37 26 19 21 15 10 7
100 100 100 100 99 100 100 100 100 96 97 96 90 89 82 79 89 90 88 93 100 100 99 100 100 93 88 83 76 70 67 64 59 58 52 47 39 30 16 19 15 8 7 6
100 100 100 100 100 100 100 100 100 100 100 100 88 84 89 90 92 93 94 98 100 100 100 99 92 86 81 80 73 68 64 57 60 56 50 41 32 16 17 13 8 7 7 7
100 100 100 100 100 100 100 98 96 93 91 91 98 100 100 100 95 93 100 100 100 100 100 93 86 84 81 74 71 64 60 60 58 51 48 34 18 15 13 8 7 7 7 10
95 97 98 94 91 89 88 90 94 97 98 97 95 97 99 98 98 100 100 99 95 91 88 89 86 78 73 68 65 63 60 60 52 50 38 22 14 12 8 8 8 8 10 10
100 100 100 100 100 99 98 99 96 96 100 100 100 99 99 98 99 99 95 95 96 90 88 86 80 72 68 66 66 61 61 57 48 38 26 14 12 10 9 10 9 12 12 11
Wind_Speed
20 25 30 27 20 10 23 30 34 33 32 34 36 34 33 29 23 22 24 22 26 35 44 47 51 55 55 61 56 55 55 52 51 52 51 51 50 48 49 55 58 62 64 66
23 23 16 9 4 10 25 32 39 19 27 28 16 13 13 12 9 5 10 16 20 26 33 42 47 47 53 51 51 52 49 48 50 50 52 52 50 50 51 50 55 61 64 66
21 10 2 4 8 18 25 32 30 19 21 27 26 24 17 13 10 7 10 18 23 29 35 37 40 44 45 47 47 45 45 48 50 51 50 51 52 52 52 50 54 58 63 66
11 6 2 7 13 19 22 26 24 19 22 32 41 40 29 30 29 28 24 22 23 27 33 35 36 39 40 41 42 43 45 45 48 48 48 50 53 53 51 49 53 57 60 64
13 11 4 7 16 20 19 25 19 14 18 23 37 38 22 29 26 24 24 24 24 26 29 31 34 36 38 40 39 39 40 43 44 47 48 50 51 51 49 48 52 56 59 62
17 11 3 9 15 16 16 21 19 21 13 18 25 25 26 19 16 17 17 19 21 23 26 28 29 31 33 32 34 36 38 41 44 45 47 48 48 47 44 47 50 54 58 64
16 14 12 10 14 18 17 16 12 17 12 10 18 16 22 14 11 12 16 16 17 19 21 22 24 28 30 32 33 36 40 42 42 41 42 41 38 38 41 45 49 55 61 67
17 17 14 8 11 18 18 18 4 16 6 10 5 3 4 11 15 11 13 14 15 18 20 21 24 27 29 33 35 35 33 33 34 32 30 30 33 37 42 49 55 61 67 72
18 14 14 13 12 18 20 16 7 9 8 8 15 5 1 5 8 11 12 14 14 15 16 20 24 23 22 21 22 22 20 20 21 23 28 32 38 44 50 55 61 67 73 79
25 22 21 20 15 17 20 16 8 4 1 4 6 2 1 1 6 5 5 6 7 10 9 10 12 12 12 12 12 13 17 21 25 30 35 40 46 51 56 62 68 74 81 87
25 24 21 21 19 16 16 12 4 7 8 7 11 11 9 7 11 10 9 10 10 8 8 9 6 6 8 11 15 19 24 28 32 37 42 47 53 59 64 70 76 82 87 91
19 21 22 17 18 15 15 11 6 7 5 10 9 7 8 8 7 9 9 8 9 9 9 9 11 13 16 19 22 26 31 35 40 45 50 55 60 67 73 77 82 85 88 88
17 25 20 16 17 15 14 10 7 10 9 7 10 9 7 8 7 7 8 9 10 12 13 15 17 20 23 27 30 34 38 42 46 51 57 63 68 73 77 80 82 81 77 77
23 21 21 18 16 14 14 12 9 5 5 7 8 10 11 12 13 13 15 17 17 18 19 21 24 26 29 33 36 39 43 48 52 57 63 68 71 74 76 73 70 73 76 81
22 20 20 17 17 15 15 13 14 12 12 11 11 11 13 14 15 17 19 20 22 23 25 27 29 32 33 36 41 45 48 52 58 63 67 69 68 66 65 68 73 78 83 89
21 19 15 15 16 17 16 15 14 14 15 14 15 16 17 17 17 17 18 21 24 25 27 29 31 34 39 42 44 48 52 57 61 63 61 60 60 64 69 74 80 85 90 94
20 16 13 14 15 16 15 13 12 14 16 17 19 18 19 21 21 21 22 24 26 28 30 32 35 40 43 43 47 52 54 59 59 56 57 60 65 70 75 81 87 92 95 98
22 17 16 15 17 15 14 13 14 15 17 19 20 20 20 21 22 23 25 27 29 32 35 38 41 42 45 48 52 54 58 59 55 57 61 66 72 77 83 88 93 96 98 94
22 19 18 16 17 17 17 17 18 18 18 19 21 23 24 24 26 28 31 33 36 40 43 46 47 48 50 52 54 57 55 54 58 63 68 74 79 85 90 94 97 97 90 84
27 24 23 22 20 20 22 22 22 21 22 24 25 24 24 26 27 29 32 36 41 44 48 51 52 52 53 54 53 51 55 59 65 71 76 81 86 91 95 96 96 85 81 80
32 31 31 28 27 26 26 27 27 26 26 26 26 25 24 28 32 34 33 33 33 35 37 36 36 37 40 45 50 55 61 67 73 78 83 88 92 95 96 93 83 77 78 74
31 31 33 32 30 30 30 31 31 31 29 27 27 29 31 35 33 33 34 34 37 41 42 42 42 45 48 53 58 64 69 74 79 84 89 92 94 96 91 83 76 74 69 64
35 34 34 35 33 33 33 32 33 32 31 32 34 35 39 37 36 36 37 39 44 45 45 46 49 52 57 62 67 71 76 81 85 88 90 92 91 89 84 74 71 66 60 55
38 37 35 35 36 37 37 37 38 38 38 39 41 41 38 38 38 38 41 45 46 47 49 52 56 60 64 68 73 78 82 86 88 89 90 88 86 82 72 68 63 56 51 44
45 44 43 42 42 42 43 44 43 43 44 44 41 39 40 40 41 44 47 49 50 52 55 59 63 66 71 75 79 83 86 87 87 87 87 86 82 72 67 61 54 49 42 38
50 50 50 49 48 47 47 48 49 48 43 41 42 43 44 45 47 49 51 53 55 57 61 64 68 71 75 80 83 86 87 86 84 84 86 81 74 66 61 54 48 41 37 35
56 56 55 53 51 48 47 47 46 46 46 47 48 49 50 52 54 55 56 57 59 63 66 69 73 76 80 83 85 86 83 81 81 81 80 78 65 62 56 49 42 37 35 32
Wind_Direction
264 273 282 273 297 328 3 349 339 335 327 310 301 292 290 297 290 273 260 241 236 230 220 209 207 214 212 213 217 225 234 240 246 254 258 263 266 269 268 261 261 262 261 263
272 280 268 289 341 359 357 347 340 338 335 25 340 311 296 307 311 264 216 208 198 189 182 192 200 202 200 205 215 226 232 240 248 253 256 259 266 271 273 267 265 264 265 266
277 250 224 30 345 355 355 354 347 333 20 38 50 47 43 55 63 83 128 144 151 161 171 179 188 189 197 209 219 226 232 240 249 255 259 261 265 272 276 272 268 267 267 268
232 204 103 341 342 346 347 349 356 2 46 47 51 49 62 70 79 87 98 118 144 153 156 169 180 193 206 216 221 227 236 245 253 257 259 263 266 272 278 276 271 271 271 271
192 187 172 291 301 319 341 1 23 34 51 59 56 50 84 85 87 101 118 129 134 142 161 179 192 203 211 216 223 234 243 251 260 260 261 265 270 275 279 274 272 274 274 276
201 195 174 292 295 313 332 349 29 45 43 67 92 64 73 72 102 102 111 124 141 158 174 187 199 209 215 223 231 240 249 255 259 263 265 269 273 277 274 274 276 277 277 279
214 208 215 269 306 316 322 343 358 29 65 63 89 87 79 79 96 145 157 166 172 178 188 197 204 215 223 228 237 248 254 261 266 269 270 270 272 273 276 278 279 280 282 284
218 221 225 268 299 313 320 335 356 8 63 86 133 101 38 73 87 123 188 191 207 213 217 219 225 232 239 246 251 258 263 264 263 264 267 272 278 281 282 282 283 285 286 288
211 217 228 245 284 295 310 324 318 4 43 63 86 351 110 81 92 102 123 159 181 199 213 223 232 238 242 247 250 250 253 260 270 277 279 281 282 284 285 286 287 289 290 290
230 234 248 255 262 285 299 321 325 323 182 209 133 139 276 98 147 141 133 178 159 175 175 189 191 202 213 223 244 261 270 275 279 281 283 284 284 285 287 288 289 289 290 291
232 238 252 264 272 287 296 310 266 312 221 230 174 157 157 150 142 144 154 171 182 182 183 195 208 225 245 259 267 273 276 279 281 282 284 285 286 287 287 288 289 291 293 296
234 249 253 260 273 290 292 297 281 251 245 223 223 213 189 191 169 162 167 184 194 204 217 230 242 250 259 266 271 275 278 280 283 284 285 286 286 287 288 291 294 296 297 298
242 252 263 275 276 284 281 276 267 243 245 235 224 221 198 182 196 203 207 215 220 228 238 248 256 263 268 272 276 280 282 284 285 285 286 288 288 290 292 295 296 297 298 299
241 259 261 265 266 266 265 252 247 235 241 248 255 258 245 241 231 233 237 239 242 245 252 259 264 269 274 278 281 282 282 284 287 287 287 290 293 294 296 297 297 299 300 301
237 241 248 255 262 261 253 248 241 234 236 238 241 242 242 243 245 245 246 250 255 258 263 270 275 277 278 278 280 284 285 286 287 290 293 295 296 296 298 300 302 303 304 304
217 221 229 238 245 251 249 248 249 252 249 247 252 251 253 253 254 257 262 266 270 273 275 277 277 278 279 281 284 287 290 292 295 297 298 298 300 301 303 304 304 304 304 305
200 200 211 225 230 240 243 237 244 255 258 256 255 257 259 261 262 263 267 270 272 272 273 275 276 277 282 286 290 292 295 298 300 299 300 303 304 305 306 305 305 305 306 309
191 198 207 217 225 235 240 238 237 240 246 249 253 255 257 261 263 263 265 268 271 273 275 278 280 283 286 289 293 295 299 301 300 302 304 306 306 306 306 306 307 309 312 314
201 206 212 224 236 237 243 248 250 252 255 257 254 257 263 268 270 271 272 275 279 280 281 281 283 285 288 291 295 299 301 302 304 305 307 307 308 307 307 308 312 314 317 314
210 218 227 233 236 240 248 254 255 253 254 257 261 265 270 274 275 278 281 285 288 290 292 290 288 288 292 296 299 301 304 305 306 307 308 308 308 309 310 313 315 319 315 313
226 230 235 242 245 240 241 247 250 252 256 257 260 265 269 279 284 285 288 292 302 310 311 310 307 305 303 302 304 306 306 307 307 309 310 311 310 312 313 316 321 318 314 315
239 243 246 247 249 247 248 255 258 257 255 260 268 269 275 283 284 286 289 295 303 304 304 304 305 305 306 307 306 306 308 310 311 313 313 312 313 314 317 322 320 316 316 316
242 245 248 247 248 250 252 256 258 260 265 268 272 276 283 281 284 285 290 298 301 302 301 301 302 304 305 306 307 309 311 313 314 314 314 314 314 317 320 323 318 318 319 319
238 241 243 246 248 252 256 257 260 264 268 274 277 277 275 279 281 286 293 297 297 297 297 299 302 304 306 308 309 311 313 314 315 314 314 314 317 320 325 321 321 322 322 321
240 243 245 247 248 250 254 260 263 267 273 276 274 275 278 281 283 286 291 293 293 295 296 299 302 304 307 309 311 313 315 315 315 316 315 317 318 326 324 324 325 324 323 324
244 247 251 254 255 257 260 263 267 270 271 272 274 276 280 282 284 286 289 290 292 294 297 300 302 305 308 311 312 314 315 316 316 316 315 317 325 327 327 328 327 326 326 326
252 255 257 259 262 263 265 267 269 271 272 274 276 278 280 281 283 285 287 290 293 295 298 301 303 307 310 311 313 315 317 316 316 315 315 321 328 328 329 330 327 327 327 327